Palma de Mallorca, Spain

4:17 AM CEST on July 23, 2017 (GMT +0200)
Palma De Mallorca

Weather History for LEPA - March, 2012

Change the Weather History Date:

Saturday, March 31, 2012

  Actual Average Record
Temperature  
Mean Temperature 56 °F -  
Max Temperature 68 °F 66 °F 79 °F (2015)
Min Temperature 43 °F 46 °F 35 °F (1997)
Degree Days  
Heating Degree Days 10    
Growing Degree Days 6 (Base 50)    
Moisture  
Dew Point 48 °F    
Average Humidity 76    
Maximum Humidity 100    
Minimum Humidity 44    
Precipitation  
Precipitation 0.00 in 0.05 in - ()
Sea Level Pressure  
Sea Level Pressure 29.88 in    
Wind  
Wind Speed 2 mph ()    
Max Wind Speed 14 mph    
Max Gust Speed -    
Visibility 5.8 miles    
Events      
Averages and records for this station are not official NWS values.
T = Trace of Precipitation, MM = Missing Value Source: Averaged Metar Reports

Daily Weather History Graph

Daily Weather History Graph

Search for Another Location

Airport or City:

Trip Planner

Search our weather history database for the weather conditions in past years. The results will help you decide how hot, cold, wet, or windy it might be!

Date:

Astronomy

Mar. 31, 2012 Rise Set
Actual Time 7:34 AM CEST 8:12 PM CEST
Civil Twilight 7:07 AM CEST 8:39 PM CEST
Nautical Twilight 6:35 AM CEST 9:11 PM CEST
Astronomical Twilight 6:02 AM CEST 9:44 PM CEST
Moon 1:26 PM CEST (3/31) 3:18 AM CEST (3/31)
Length of Visible Light 13h 32m
Length of Day
12h 37m
First Quarter, 56% of the Moon is Illuminated
Mar 31
First Quarter
Apr 6
Full
Apr 13
Last Quarter
Apr 21
New
Apr 29
First Quarter

Hourly Weather History & Observations

Time (CEST) Temp. Dew Point Humidity Pressure Visibility Wind Dir Wind Speed Gust Speed Precip Events Conditions
12:00 AM 50.0 °F 46.4 °F 87% 29.92 in - Variable 1.2 mph - N/A   Clear
12:30 AM 48.2 °F 46.4 °F 93% 29.92 in - Calm Calm - N/A   Clear
1:00 AM 48.2 °F 44.6 °F 87% 29.92 in - Calm Calm - N/A   Clear
1:30 AM 48.2 °F 46.4 °F 93% 29.92 in - NE 1.2 mph - N/A   Clear
2:00 AM 47 °F 45 °F 92% 29.93 in 12 mi Calm Calm - -  
2:00 AM 48.2 °F 44.6 °F 87% 29.92 in - Calm Calm - N/A   Clear
2:30 AM 46.4 °F 44.6 °F 93% 29.92 in - Calm Calm - N/A   Clear
3:00 AM 46.4 °F 44.6 °F 93% 29.92 in - NE 1.2 mph - N/A   Clear
3:30 AM 46.4 °F 44.6 °F 93% 29.89 in - Calm Calm - N/A   Clear
4:00 AM 46.4 °F 44.6 °F 93% 29.89 in - Calm Calm - N/A   Clear
4:30 AM 44.6 °F 42.8 °F 93% 29.89 in - NE 1.2 mph - N/A   Clear
5:00 AM 44.6 °F 42.8 °F 93% 29.89 in - NE 1.2 mph - N/A   Clear
5:30 AM 44.6 °F 44.6 °F 100% 29.89 in 3.1 mi Calm Calm - N/A   Mist
6:00 AM 44.6 °F 42.8 °F 93% 29.89 in 3.1 mi Calm Calm - N/A   Mist
6:30 AM 44.6 °F 42.8 °F 93% 29.89 in 3.1 mi Calm Calm - N/A   Mist
7:00 AM 44.6 °F 42.8 °F 93% 29.89 in 2.5 mi Calm Calm - N/A   Mist
7:30 AM 44.6 °F 42.8 °F 93% 29.89 in 3.1 mi Calm Calm - N/A   Mist
8:00 AM 44 °F 43 °F 97% 29.90 in 3 mi Calm Calm - -   Mist
8:00 AM 44.6 °F 42.8 °F 93% 29.89 in 3.1 mi Calm Calm - N/A   Mist
8:30 AM 48.2 °F 46.4 °F 93% 29.89 in 3.1 mi Calm Calm - N/A   Partly Cloudy
9:00 AM 51.8 °F 51.8 °F 100% 29.89 in 3.1 mi Calm Calm - N/A   Partly Cloudy
9:30 AM 55.4 °F 53.6 °F 94% 29.89 in 4.3 mi Calm Calm - N/A   Partly Cloudy
10:00 AM 59.0 °F 55.4 °F 88% 29.89 in 5.0 mi Calm Calm - N/A   Unknown
10:30 AM 60.8 °F 55.4 °F 82% 29.89 in - Calm Calm - N/A   Clear
11:00 AM 62.6 °F 55.4 °F 77% 29.92 in - SSW 6.9 mph - N/A   Clear
11:30 AM 62.6 °F 55.4 °F 77% 29.92 in - SW 5.8 mph - N/A   Clear
12:00 PM 64.4 °F 51.8 °F 64% 29.92 in - SW 5.8 mph - N/A   Clear
12:30 PM 66.2 °F 53.6 °F 64% 29.89 in - SW 6.9 mph - N/A   Clear
1:00 PM 64.4 °F 51.8 °F 64% 29.89 in - SSW 10.4 mph - N/A   Clear
2:00 PM 67 °F 50 °F 44% 29.89 in 16 mi SW 9.2 mph - -   Scattered Clouds
2:00 PM 66.2 °F 51.8 °F 60% 29.89 in 6.2 mi SW 9.2 mph - N/A   Partly Cloudy
2:30 PM 66.2 °F 51.8 °F 60% 29.86 in 6.2 mi SSW 8.1 mph - N/A   Partly Cloudy
3:00 PM 66.2 °F 51.8 °F 60% 29.86 in 6.2 mi SW 12.7 mph - N/A   Partly Cloudy
3:30 PM 66.2 °F 50.0 °F 56% 29.86 in 6.2 mi SW 13.8 mph - N/A   Partly Cloudy
4:00 PM 66.2 °F 48.2 °F 52% 29.86 in - SSW 12.7 mph - N/A   Clear
4:30 PM 68.0 °F 50.0 °F 52% 29.86 in - SSW 11.5 mph - N/A   Clear
5:00 PM 66.2 °F 46.4 °F 49% 29.83 in - SSW 13.8 mph - N/A   Clear
5:30 PM 66.2 °F 46.4 °F 49% 29.83 in - SSW 10.4 mph - N/A   Clear
6:00 PM 66.2 °F 48.2 °F 52% 29.83 in - SSW 8.1 mph - N/A   Clear
6:30 PM 66.2 °F 50.0 °F 56% 29.83 in - SSW 5.8 mph - N/A   Clear
7:00 PM 64.4 °F 48.2 °F 56% 29.83 in - SSW 8.1 mph - N/A   Clear
7:30 PM 62.6 °F 48.2 °F 59% 29.80 in - South 4.6 mph - N/A   Clear
8:00 PM 62 °F 51 °F 58% 29.83 in 16 mi SSW 4.6 mph - -   Clear
8:00 PM 62.6 °F 51.8 °F 68% 29.83 in - SSW 4.6 mph - N/A   Clear
8:30 PM 62.6 °F 51.8 °F 68% 29.83 in - SSW 3.5 mph - N/A   Clear
9:00 PM 60.8 °F 51.8 °F 72% 29.83 in - South 3.5 mph - N/A   Clear
9:30 PM 60.8 °F 50.0 °F 68% 29.83 in - SSE 4.6 mph - N/A   Clear
10:00 PM 57.2 °F 48.2 °F 72% 29.83 in - Calm Calm - N/A   Clear
10:30 PM 55.4 °F 46.4 °F 72% 29.83 in - ENE 1.2 mph - N/A   Clear
11:00 PM 53.6 °F 44.6 °F 72% 29.83 in - NE 2.3 mph - N/A   Clear
11:30 PM 51.8 °F 44.6 °F 76% 29.83 in - NE 2.3 mph - N/A   Clear